Home   Weather   Tempe   Past weeks

Flag for USA Past Weather in Tempe, Arizona, USA — Yesterday and Last 2 Weeks

Now
57 °F

Passing clouds.


Feels Like: 57 °F
Forecast: 45 / 67 °F
Wind: No wind

Location: Phoenix Sky Harbor International Airport

Current Time: Dec 8, 2016 at 11:27:00 am

Latest Report: Dec 8, 2016 at 10:51 am


Visibility: 10 mi

Pressure: 30.22 "Hg

Humidity: 49%

Dew Point: 38 °F

Location of TempeLocation

Past Weather in Tempe — Graph

°F

Tempe Temperature Yesterday

Maximum temperature yesterday: 66 °F (at 2:51 pm)
Minimum temperature yesterday: 48 °F (at 5:51 am)
Average temperature yesterday: 57 °F

High & Low Weather Summary for the Past Weeks

 TemperatureHumidityPressure
High80 °F (Nov 25, 2:51 pm)93% (Nov 27, 8:51 pm)30.22 "Hg (Nov 27, 8:51 pm)
Low41 °F (Nov 30, 6:51 am)9% (Nov 24, 1:51 pm)29.75 "Hg (Nov 28, 3:51 pm)
Average56 °F43%29.95 "Hg
* Reported Nov 23 9:51 am — Dec 8 9:51 am, Tempe, Weather by CustomWeather, © 2016

Note: Actual official high and low records may vary slightly from our data, if they occured in-between our weather recording intervals... More about our weather records

Advertising

Tempe Weather History for the Previous 24 Hours

Scroll right to see more
 ConditionsComfort  
Time TempWeatherWind HumidityBarometerVisibility
9:51 am
Thu, Dec 8
53 °FPassing clouds.No wind56%30.22 "Hg10 mi
8:51 am50 °FSunny.No wind63%30.20 "Hg10 mi
7:51 am47 °FPassing clouds.5 mph74%30.16 "Hg10 mi
6:51 am46 °FPassing clouds.5 mph73%30.15 "Hg10 mi
5:51 am47 °FPassing clouds.No wind71%30.12 "Hg10 mi
4:51 am47 °FPassing clouds.No wind74%30.11 "Hg10 mi
3:51 am48 °FPassing clouds.No wind71%30.11 "Hg10 mi
2:51 am50 °FPassing clouds.No wind61%30.09 "Hg10 mi
1:51 am50 °FPassing clouds.No wind61%30.08 "Hg10 mi
12:51 am53 °FPassing clouds.5 mph52%30.07 "Hg10 mi
11:51 pm
Wed, Dec 7
53 °FPassing clouds.6 mph52%30.08 "Hg10 mi
10:51 pm52 °FPassing clouds.6 mph59%30.08 "Hg10 mi
9:51 pm55 °FPassing clouds.5 mph55%30.06 "Hg10 mi
8:51 pm57 °FPassing clouds.5 mph55%30.05 "Hg10 mi
7:51 pm57 °FPassing clouds.5 mph58%30.04 "Hg10 mi
6:51 pm59 °FPartly cloudy.7 mph54%30.02 "Hg10 mi
5:51 pm63 °FPartly cloudy.8 mph47%30.01 "Hg10 mi
4:51 pm64 °FBroken clouds.7 mph45%29.99 "Hg10 mi
3:51 pm65 °FBroken clouds.7 mph44%29.98 "Hg10 mi
2:51 pm66 °FBroken clouds.6 mph45%29.96 "Hg10 mi
1:51 pm65 °FPartly sunny.8 mph47%29.96 "Hg10 mi
12:51 pm64 °FBroken clouds.5 mph49%29.97 "Hg10 mi
11:51 am63 °FBroken clouds.No wind52%29.99 "Hg10 mi
Weather by CustomWeather, © 2016

See weather overviewHow to use our weather pages